Weather History for KLHZ - March, 2014

Change the Weather History Date:

Saturday, March 15, 2014

  Actual Average (KRDU) Record (KRDU)
Temperature  
Mean Temperature 63 °F 51 °F  
Max Temperature 75 °F 63 °F 87 °F (1967)
Min Temperature 50 °F 40 °F 14 °F (1993)
Degree Days  
Heating Degree Days 2 14  
Month to date heating degree days 238  
Since 1 July heating degree days 2810  
Cooling Degree Days 0 0  
Month to date cooling degree days 0  
Year to date cooling degree days 1  
Growing Degree Days 13 (Base 50)    
Moisture  
Dew Point 33 °F    
Average Humidity 37    
Maximum Humidity 54    
Minimum Humidity 18    
Precipitation  
Precipitation 0.00 in 0.14 in 0.96 in (1913)
Month to date precipitation 2.02  
Year to date precipitation 8.75  
Snow  
Snow 0.00 in 0.00 in 2.00 in (1934)
Month to date snowfall 0.4  
Since 1 July snowfall 5.9  
Snow Depth -    
Sea Level Pressure  
Sea Level Pressure 30.01 in    
Wind  
Wind Speed 7 mph (SW)    
Max Wind Speed 12 mph    
Max Gust Speed 21 mph    
Visibility 10 miles    
Events      
T = Trace of Precipitation, MM = Missing Value Source: NWS Daily Summary

Daily Weather History Graph

Daily Weather History Graph

Search for Another Location

Airport or City:

Trip Planner

Search our weather history database for the weather conditions in past years. The results will help you decide how hot, cold, wet, or windy it might be!

Date:

Astronomy

Mar. 15, 2014 Rise Set
Actual Time 7:24 AM EDT 7:20 PM EDT
Civil Twilight 6:58 AM EDT 7:46 PM EDT
Nautical Twilight 6:28 AM EDT 8:16 PM EDT
Astronomical Twilight 5:58 AM EDT 8:46 PM EDT
Moon 6:38 PM EDT (3/15) 6:33 AM EDT (3/15)
Length of Visible Light 12h 47m
Length of Day
11h 56m
Waxing Gibbous, 99% of the Moon is Illuminated
Mar 15
Waxing Gibbous
Mar 16
Full
Mar 23
Last Quarter
Mar 30
New
Apr 7
First Quarter

Hourly Weather History & Observations

Time (EDT) Temp. Dew Point Humidity Pressure Visibility Wind Dir Wind Speed Gust Speed Precip Events Conditions
12:15 AM 53.6 °F 33.8 °F 47% 30.09 in 10.0 mi SSW 8.1 mph - N/A   Clear
12:35 AM 53.6 °F 33.8 °F 47% 30.08 in 10.0 mi SSW 11.5 mph 16.1 mph N/A   Clear
12:55 AM 55.4 °F 35.6 °F 47% 30.08 in 10.0 mi SSW 9.2 mph 18.4 mph N/A   Mostly Cloudy
1:15 AM 55.4 °F 35.6 °F 47% 30.07 in 10.0 mi SSW 9.2 mph 16.1 mph N/A   Overcast
1:35 AM 55.4 °F 35.6 °F 47% 30.06 in 10.0 mi SSW 10.4 mph 17.3 mph N/A   Mostly Cloudy
1:55 AM 55.4 °F 35.6 °F 47% 30.05 in 10.0 mi SSW 8.1 mph 19.6 mph N/A   Overcast
2:15 AM 55.4 °F 37.4 °F 51% 30.05 in 10.0 mi SSW 6.9 mph - N/A   Mostly Cloudy
2:35 AM 55.4 °F 37.4 °F 51% 30.05 in 10.0 mi SSW 6.9 mph 20.7 mph N/A   Mostly Cloudy
2:55 AM 55.4 °F 37.4 °F 51% 30.05 in 10.0 mi SSW 5.8 mph 16.1 mph N/A   Overcast
3:15 AM 55.4 °F 37.4 °F 51% 30.04 in 10.0 mi SSW 8.1 mph - N/A   Overcast
3:35 AM 55.4 °F 37.4 °F 51% 30.03 in 10.0 mi SSW 6.9 mph - N/A   Overcast
3:55 AM 55.4 °F 37.4 °F 51% 30.03 in 10.0 mi SSW 4.6 mph - N/A   Overcast
4:15 AM 53.6 °F 37.4 °F 54% 30.02 in 10.0 mi SSW 5.8 mph - N/A   Mostly Cloudy
4:35 AM 53.6 °F 37.4 °F 54% 30.01 in 10.0 mi SSW 5.8 mph - N/A   Mostly Cloudy
4:55 AM 53.6 °F 37.4 °F 54% 30.01 in 10.0 mi SSW 5.8 mph - N/A   Mostly Cloudy
5:15 AM 53.6 °F 37.4 °F 54% 30.00 in 10.0 mi SSW 4.6 mph - N/A   Scattered Clouds
5:35 AM 53.6 °F 37.4 °F 54% 30.00 in 10.0 mi SSW 5.8 mph - N/A   Clear
5:55 AM 53.6 °F 37.4 °F 54% 30.00 in 10.0 mi SSW 4.6 mph - N/A   Clear
6:15 AM 53.6 °F 37.4 °F 54% 30.01 in 10.0 mi SW 3.5 mph - N/A   Clear
6:35 AM 53.6 °F 37.4 °F 54% 30.00 in 10.0 mi SSW 6.9 mph - N/A   Clear
6:55 AM 53.6 °F 37.4 °F 54% 30.00 in 10.0 mi SSW 5.8 mph - N/A   Clear
7:15 AM 53.6 °F 37.4 °F 54% 30.01 in 10.0 mi SSW 6.9 mph - N/A   Clear
7:35 AM 53.6 °F 37.4 °F 54% 30.02 in 10.0 mi SW 5.8 mph - N/A   Clear
7:55 AM 53.6 °F 37.4 °F 54% 30.02 in 10.0 mi SW 4.6 mph - N/A   Clear
8:15 AM 53.6 °F 35.6 °F 51% 30.03 in 10.0 mi SW 4.6 mph - N/A   Clear
8:35 AM 55.4 °F 35.6 °F 47% 30.03 in 10.0 mi SW 3.5 mph - N/A   Clear
8:55 AM 57.2 °F 35.6 °F 44% 30.03 in 10.0 mi SW 6.9 mph - N/A   Clear
9:15 AM 59.0 °F 35.6 °F 42% 30.03 in 10.0 mi SW 4.6 mph - N/A   Clear
9:35 AM 60.8 °F 35.6 °F 39% 30.03 in 10.0 mi WSW 6.9 mph - N/A   Clear
9:55 AM 60.8 °F 33.8 °F 36% 30.04 in 10.0 mi WSW 6.9 mph - N/A   Clear
10:15 AM 62.6 °F 33.8 °F 34% 30.04 in 10.0 mi West 5.8 mph - N/A   Clear
10:35 AM 64.4 °F 32.0 °F 30% 30.04 in 10.0 mi WSW 6.9 mph - N/A   Clear
10:55 AM 66.2 °F 32.0 °F 28% 30.04 in 10.0 mi SW 8.1 mph - N/A   Clear
11:15 AM 68.0 °F 32.0 °F 26% 30.03 in 10.0 mi West 10.4 mph - N/A   Clear
11:35 AM 68.0 °F 32.0 °F 26% 30.03 in 10.0 mi WSW 8.1 mph - N/A   Clear
11:55 AM 68.0 °F 32.0 °F 26% 30.03 in 10.0 mi WSW 8.1 mph - N/A   Clear
12:15 PM 69.8 °F 32.0 °F 25% 30.03 in 10.0 mi WSW 9.2 mph 18.4 mph N/A   Clear
12:35 PM 69.8 °F 30.2 °F 23% 30.02 in 10.0 mi West 9.2 mph 16.1 mph N/A   Clear
12:55 PM 69.8 °F 30.2 °F 23% 30.01 in 10.0 mi West 8.1 mph - N/A   Clear
1:15 PM 71.6 °F 28.4 °F 20% 30.01 in 10.0 mi West 8.1 mph 20.7 mph N/A   Clear
1:35 PM 71.6 °F 28.4 °F 20% 30.00 in 10.0 mi West 11.5 mph 19.6 mph N/A   Clear
2:15 PM 73.4 °F 30.2 °F 20% 29.98 in 10.0 mi WSW 4.6 mph 19.6 mph N/A   Clear
2:35 PM 73.4 °F 30.2 °F 20% 29.97 in 10.0 mi WSW 5.8 mph - N/A   Clear
2:55 PM 73.4 °F 28.4 °F 19% 29.97 in 10.0 mi West 9.2 mph - N/A   Clear
3:15 PM 73.4 °F 28.4 °F 19% 29.96 in 10.0 mi WNW 11.5 mph 16.1 mph N/A   Clear
3:35 PM 73.4 °F 28.4 °F 19% 29.96 in 10.0 mi WSW 10.4 mph 17.3 mph N/A   Clear
3:55 PM 75.2 °F 28.4 °F 18% 29.95 in 10.0 mi SW 3.5 mph - N/A   Clear
4:15 PM 75.2 °F 28.4 °F 18% 29.95 in 10.0 mi West 10.4 mph - N/A   Clear
4:35 PM 73.4 °F 26.6 °F 18% 29.95 in 10.0 mi WSW 10.4 mph 16.1 mph N/A   Clear
4:55 PM 75.2 °F 28.4 °F 18% 29.95 in 10.0 mi WSW 6.9 mph - N/A   Clear
5:15 PM 73.4 °F 28.4 °F 19% 29.95 in 10.0 mi WSW 10.4 mph 16.1 mph N/A   Clear
5:35 PM 73.4 °F 28.4 °F 19% 29.95 in 10.0 mi West 6.9 mph - N/A   Clear
5:55 PM 73.4 °F 28.4 °F 19% 29.95 in 10.0 mi West 3.5 mph - N/A   Clear
6:15 PM 71.6 °F 28.4 °F 20% 29.96 in 10.0 mi WSW 3.5 mph - N/A   Clear
6:35 PM 71.6 °F 28.4 °F 20% 29.96 in 10.0 mi Calm Calm - N/A   Clear
6:55 PM 71.6 °F 28.4 °F 20% 29.97 in 10.0 mi Calm Calm - N/A   Clear
7:15 PM 69.8 °F 30.2 °F 23% 29.98 in 10.0 mi Calm Calm - N/A   Clear
7:35 PM 66.2 °F 32.0 °F 28% 29.98 in 10.0 mi Calm Calm - N/A   Clear
7:55 PM 64.4 °F 32.0 °F 30% 29.98 in 10.0 mi SSW 3.5 mph - N/A   Clear
8:15 PM 60.8 °F 33.8 °F 36% 29.99 in 10.0 mi Calm Calm - N/A   Clear
8:35 PM 59.0 °F 33.8 °F 39% 29.99 in 10.0 mi Calm Calm - N/A   Clear
8:55 PM 62.6 °F 32.0 °F 32% 30.00 in 10.0 mi Calm Calm - N/A   Clear
9:15 PM 60.8 °F 32.0 °F 34% 30.00 in 10.0 mi Calm Calm - N/A   Clear
9:35 PM 62.6 °F 32.0 °F 32% 30.01 in 10.0 mi SW 3.5 mph - N/A   Clear
9:55 PM 62.6 °F 32.0 °F 32% 30.02 in 10.0 mi Calm Calm - N/A   Clear
10:15 PM 55.4 °F 35.6 °F 47% 30.04 in 10.0 mi Calm Calm - N/A   Clear
10:35 PM 55.4 °F 33.8 °F 44% 30.04 in 10.0 mi Calm Calm - N/A   Clear
10:55 PM 53.6 °F 33.8 °F 47% 30.03 in 10.0 mi Calm Calm - N/A   Clear
11:15 PM 51.8 °F 33.8 °F 50% 30.04 in 10.0 mi Calm Calm - N/A   Clear
11:35 PM 51.8 °F 35.6 °F 54% 30.04 in 10.0 mi Calm Calm - N/A   Clear
11:55 PM 50.0 °F 33.8 °F 54% 30.05 in 10.0 mi Calm Calm - N/A   Clear